Regional Weather Roundup
Issued by NWS Green Bay, WI

Home | Current Version | Previous Version | Graphics & Text | Print | Product List | Glossary Off
Versions: 1 2 3 4 5 6 7 8 9 10 11 12 13 14 15 16 17 18 19 20 21 22 23 24 25 26 27 28 29 30 31 32 33 34 35 36 37 38 39 40 41 42 43 44 45 46 47 48 49 50

000
ASUS43 KGRB 261359
RWRGRB

NORTH-CENTRAL AND NORTHEAST WISCONSIN REGIONAL WEATHER ROUNDUP
NATIONAL WEATHER SERVICE GREEN BAY WI
900 AM CDT THU MAR 26 2015

WIZ005-009-010>012-018-019-261500-
NORTH CENTRAL WISCONSIN

CITY           SKY/WX    TMP DP  RH WIND       PRES   REMARKS
IRONWOOD       CLOUDY    19  16  86 N14       30.00R WCI   6
MANITOWISH WTR NOT AVBL
ARBOR VITAE    NOT AVBL
EAGLE RIVER    NOT AVBL
LAND O LAKES   NOT AVBL
RHINELANDER    FLURRIES  23  16  74 N10G22    29.93R
PHILLIPS       NOT AVBL
ANTIGO         NOT AVBL
TOMAHAWK       NOT AVBL
MERRILL        NOT AVBL
$$

WIZ013-073-261500-
NORTHEAST WISCONSIN

CITY           SKY/WX    TMP DP  RH WIND       PRES   REMARKS
IRON MOUNTAIN  FLURRIES  26  18  71 N16G28    29.88R
MARINETTE      PTSUNNY   34  19  55 NW13G20   29.89R
$$

WIZ017-030-035>037-045-261500-
CENTRAL WISCONSIN

CITY           SKY/WX    TMP DP  RH WIND       PRES   REMARKS
MEDFORD        NOT AVBL
WAUSAU         CLOUDY    29  19  66 NW15G21   29.93R
MOSINEE        NOT AVBL
MARSHFIELD     CLOUDY    30  20  66 NW15      29.96R
WISC RAPIDS    CLOUDY    31  19  61 NW14      29.98R
STEVENS POINT  NOT AVBL
WAUPACA        NOT AVBL
SHAWANO        NOT AVBL
CLINTONVILLE   NOT AVBL
$$

WIZ038-039-048-051-261500-
FOX VALLEY

CITY           SKY/WX    TMP DP  RH WIND       PRES   REMARKS
NWS GREEN BAY  CLOUDY    35  23  61 NW15      29.93R
APPLETON       CLOUDY    34  21  60 W9G16     29.93R
OSHKOSH        CLOUDY    34  22  61 NW12      29.94R
FOND DU LAC    CLOUDY    35  22  58 NW8       29.95R
$$

WIZ022-050-052-261500-
EAST CENTRAL WISCONSIN

CITY           SKY/WX    TMP DP  RH WIND       PRES   REMARKS
STURGEON BAY   CLOUDY    34  21  60 NW12G17   29.92R
MANITOWOC      NOT AVBL
SHEBOYGAN      CLOUDY    35  23  61 NW9       29.93S
$$

LMZ563-521-522-541>543-261500-
LAKESHORE

STATION/POSITION TIME  TEMP    WIND        PRES    VSBY  WAVE
                       AIR SEA DIR/SP/G                  HT/PER
                 (UTC) (F)     (DEG/KT/KT) (MB)    (MI)  (FT/S)
SHEBOYGAN LKSHOR 1300   36     300/  9/ 11 1014.4R
KEWAUNEE LKSHORE 1300   35     290/  6/ 11 1011.9R
NORTHPORT PIER   1300   33     300/ 16/ 22 1011.9R
SISTER BAY LKSHO 1300   33     340/  9/ 14   N/A
CHAMBERS ISLAND  1300   34     300/  9/ 18 1012.2R
MENOMINEE LKSHOR 1300   34     290/ 10     1012.9R
$$


USA.gov is the U.S. government's official web portal to all federal, state and local government web resources and services.